Dewpoint
73 73 73 72 71 71 71 72 71 72 72 72 70 70 71 71 70 70 69 67 68 68 69 69 70 71 72 73 72 72 70 69 66 67 70 69 69 69 69 69 68 70 67
73 74 72 72 71 70 71 72 72 72 72 72 70 71 70 70 70 70 69 67 67 68 68 68 68 66 69 69 65 72 72 67 64 67 68 67 68 69 68 67 68 68 68
73 72 71 70 70 70 71 72 72 72 72 71 69 70 69 69 70 70 70 68 68 68 68 68 68 69 70 70 67 70 69 70 69 64 64 64 66 67 64 63 64 65 66
66 71 70 70 70 69 72 73 72 72 72 71 70 70 69 69 69 69 69 69 68 68 68 68 67 67 68 70 70 70 70 69 69 70 70 65 65 66 65 62 60 63 64
63 64 72 71 71 71 72 72 73 72 72 72 70 70 70 68 66 68 68 68 68 68 68 68 67 67 67 67 64 70 70 69 66 65 65 66 65 64 63 63 61 61 62
69 70 71 72 72 72 73 73 73 72 72 72 71 70 69 65 62 63 66 67 68 67 67 68 67 66 66 65 65 65 67 68 66 60 60 63 65 64 63 61 60 59 59
67 70 70 71 72 73 72 71 70 70 71 72 72 71 70 69 62 61 63 67 66 66 67 67 65 61 65 65 64 63 64 63 65 68 67 66 68 67 64 62 61 61 62
65 65 67 68 69 70 69 69 70 69 70 71 71 73 72 70 61 59 61 68 67 67 67 68 68 67 66 65 65 65 65 66 67 64 68 68 69 69 67 65 64 62 62
63 64 64 66 66 68 67 68 68 68 69 70 70 72 72 72 60 58 62 68 68 68 68 68 67 68 62 60 65 66 66 67 61 61 62 62 62 62 65 64 61 60 58
65 66 66 67 68 68 69 69 69 69 69 68 70 70 66 70 60 56 60 66 69 69 71 71 62 65 58 57 65 68 65 66 65 65 64 62 63 63 61 66 63 60 61
64 66 66 67 67 69 70 70 69 69 68 68 68 68 69 68 68 54 54 63 62 65 68 68 70 59 54 54 56 66 68 68 65 67 67 64 65 64 64 65 66 67 61
62 63 64 65 66 64 67 67 68 67 65 65 65 64 65 67 60 57 54 54 60 63 65 66 68 55 51 51 56 56 56 60 62 66 66 60 61 61 62 64 66 66 66
61 61 62 63 64 65 65 65 63 65 64 64 64 64 64 65 66 56 53 53 54 59 62 63 58 52 49 52 53 53 54 61 60 62 59 64 67 60 64 65 65 67 67
60 60 61 61 61 62 62 63 62 61 61 61 61 60 59 59 60 61 61 60 54 58 59 64 60 60 58 60 58 58 61 59 60 59 58 63 66 69 68 68 62 62 63
56 58 58 58 59 59 61 63 63 63 61 62 61 61 59 60 60 58 60 64 63 59 63 62 61 62 63 62 61 60 59 59 58 59 60 62 62 63 65 66 65 60 58
54 51 54 55 56 58 59 59 53 50 46 45 44 47 58 53 49 47 47 48 50 50 62 61 60 62 63 60 59 59 59 58 57 57 57 56 56 56 58 59 60 59 57
55 54 52 53 53 56 58 59 60 57 45 43 42 43 41 43 42 43 43 44 46 51 61 61 62 61 61 61 61 59 59 59 62 59 59 60 60 57 57 60 62 60 61
55 51 51 51 53 54 55 59 57 57 57 57 49 47 46 41 41 41 42 46 53 55 62 61 62 63 63 63 64 64 62 61 62 60 60 59 59 58 58 57 58 58 56
52 51 51 50 52 54 56 59 58 57 57 57 57 52 47 40 40 41 43 59 58 60 61 61 62 61 61 62 61 61 60 61 60 60 59 58 58 58 58 56 56 52 53
52 53 52 51 51 53 55 58 58 58 58 58 59 58 58 54 55 53 56 59 59 60 61 61 61 61 60 59 59 60 58 58 58 58 57 58 57 56 53 52 52 52 53
49 49 52 50 48 50 54 59 59 58 56 58 57 55 45 58 58 58 58 58 58 58 58 58 58 58 59 59 59 59 58 57 57 56 55 54 53 52 52 52 51 51 49
49 49 49 48 49 49 52 58 60 58 57 57 57 56 47 56 57 56 56 56 57 57 58 58 58 58 58 58 58 58 58 57 57 56 54 52 51 50 48 47 45 43 43
49 49 49 49 51 53 55 58 59 59 58 57 58 56 56 57 55 55 55 56 57 57 58 57 57 57 57 58 59 58 55 53 52 52 49 46 43 42 41 40 39 39 38
51 52 50 50 56 53 55 56 57 54 58 56 56 55 54 53 53 52 52 52 52 52 54 54 54 52 53 52 52 51 51 51 50 48 47 43 42 42 41 41 39 40 39
50 53 52 52 53 56 55 55 57 58 56 55 56 56 55 54 52 52 51 51 53 52 50 48 46 45 45 44 45 44 37 32 46 42 44 44 43 44 41 39 40 38 39
48 49 50 51 53 54 56 56 57 57 56 56 56 55 53 52 51 50 50 51 49 46 45 43 43 42 40 38 37 34 31 32 38 33 41 41 41 40 39 40 40 35 34
Lifted_Index
-8 -8 -7 -7 -6 -6 -6 -6 -6 -6 -6 -6 -6 -6 -6 -6 -5 -5 -4 -3 -2 -2 -2 -2 -2 -2 -2 -2 -2 -2 -1 -1 -1 -1 -1 -0 0 0 0 1 1 1 1
-8 -8 -7 -7 -6 -6 -6 -6 -6 -6 -7 -6 -6 -6 -6 -6 -6 -5 -4 -4 -3 -3 -3 -2 -2 -2 -2 -2 -1 -1 -1 -1 -1 -1 -0 0 0 1 1 1 1 1 2
-7 -7 -7 -7 -7 -7 -7 -7 -7 -7 -7 -7 -6 -5 -6 -6 -6 -5 -5 -5 -4 -4 -3 -3 -2 -2 -2 -2 -2 -2 -2 -1 -1 -1 -1 -0 0 1 1 1 1 1 2
-4 -5 -6 -7 -7 -8 -8 -8 -8 -7 -7 -7 -6 -5 -5 -5 -5 -5 -5 -5 -5 -4 -4 -4 -3 -3 -2 -2 -2 -2 -2 -2 -1 -1 -1 -0 0 1 1 1 1 1 1
-2 -3 -6 -7 -8 -8 -9 -9 -8 -8 -8 -7 -7 -6 -5 -5 -5 -5 -5 -5 -5 -4 -4 -4 -3 -3 -2 -2 -1 -1 -2 -2 -1 -1 -0 -0 0 1 1 1 1 0 1
-2 -3 -5 -7 -8 -8 -9 -9 -8 -8 -8 -8 -7 -6 -5 -5 -5 -5 -4 -4 -4 -4 -3 -3 -3 -2 -2 -1 -1 -1 -1 -1 -1 -0 -0 -0 -0 0 0 0 -0 0 0
-2 -3 -4 -5 -6 -7 -8 -7 -7 -7 -7 -8 -7 -7 -6 -5 -5 -4 -4 -3 -3 -3 -3 -3 -3 -2 -2 -1 -1 -0 -0 -0 -0 -0 -0 -1 -1 -0 -0 -0 -0 -0 0
-1 -1 -2 -3 -4 -5 -5 -5 -5 -5 -6 -7 -7 -7 -6 -5 -5 -4 -3 -3 -3 -3 -3 -3 -3 -3 -2 -2 -1 -1 -1 -1 -0 -0 -0 -0 -0 -0 -0 -0 -0 -0 -0
0 -0 -1 -2 -2 -3 -3 -3 -4 -4 -5 -6 -6 -6 -6 -5 -4 -3 -3 -2 -2 -3 -3 -3 -3 -3 -2 -2 -2 -1 -1 -1 -0 0 1 1 1 1 0 0 0 -0 -0
-1 -1 -1 -2 -2 -3 -3 -3 -3 -4 -5 -6 -6 -6 -5 -4 -3 -3 -2 -2 -2 -3 -3 -3 -3 -2 -2 -2 -2 -2 -2 -1 -1 0 1 2 2 2 1 1 0 -0 -0
-1 -1 -2 -2 -3 -3 -3 -4 -3 -4 -4 -5 -5 -5 -5 -4 -3 -2 -2 -1 -1 -2 -3 -3 -3 -2 -1 -1 -1 -2 -2 -1 -1 -1 0 1 1 1 1 1 0 -0 -0
1 0 -0 -1 -2 -2 -3 -3 -3 -3 -3 -4 -4 -4 -4 -3 -3 -2 -1 -1 -0 -1 -2 -2 -2 -2 -1 -0 -0 -1 -1 -0 -1 -1 -1 -0 0 0 0 0 -0 -0 -1
2 1 1 0 -0 -1 -1 -2 -2 -2 -2 -2 -2 -2 -2 -1 -1 -1 -0 -0 0 0 -0 -1 -2 -2 -1 -0 -0 -0 -0 0 -0 -0 -1 -0 -0 -0 -0 -0 -0 -0 -0
2 2 1 1 1 1 0 -0 -1 -0 0 0 0 0 0 1 1 1 1 1 1 2 2 1 -0 -1 -1 -0 -0 -0 -0 0 0 -0 -0 -1 -1 -1 -1 -1 -1 -0 -0
2 2 1 1 2 2 1 1 1 1 1 2 2 2 2 2 2 2 2 2 2 2 2 2 1 0 0 0 -0 -0 0 0 0 0 -0 -1 -1 -1 -1 -0 -0 -0 0
3 3 3 2 2 2 2 2 2 3 2 2 2 2 2 2 2 2 2 2 2 2 2 3 2 1 1 1 0 0 0 0 0 0 0 -0 -0 0 0 0 0 1 1
4 4 4 4 3 3 2 3 3 3 3 3 2 2 2 2 2 2 2 2 1 1 2 2 2 1 1 1 1 1 1 1 1 1 1 0 0 1 1 1 1 1 1
5 5 5 5 4 3 3 3 3 3 3 4 3 3 3 2 2 2 2 1 1 1 1 2 2 1 1 1 1 1 1 1 1 1 1 1 1 1 1 1 1 1 2
5 5 5 5 4 3 2 2 3 3 4 4 4 3 3 2 2 1 1 1 1 1 1 2 2 2 2 2 2 2 2 2 1 1 2 2 2 2 2 2 2 2 3
4 4 4 4 3 2 1 1 1 2 3 3 3 3 3 2 1 1 1 1 1 1 2 2 2 2 3 3 3 3 3 3 3 3 3 3 3 3 3 3 4 4 4
3 3 3 3 2 1 -0 -1 -0 1 2 2 3 4 4 3 2 2 2 2 2 2 2 3 3 3 3 4 4 4 4 4 4 4 4 4 4 4 4 4 5 5 5
2 2 2 1 1 0 -1 -1 -1 -0 1 1 3 3 4 4 3 3 4 3 3 3 3 4 4 4 4 4 5 5 5 4 4 4 5 5 5 5 6 6 6 6 7
2 1 1 1 0 -0 -1 -1 -1 -0 0 1 2 3 3 4 4 4 4 4 4 4 4 5 5 5 5 5 5 5 5 5 5 5 6 6 7 7 7 7 8 8 8
2 1 1 0 -0 -0 -0 -0 -0 -0 0 1 2 2 3 3 3 3 3 3 4 4 5 5 5 5 5 5 5 5 5 6 6 6 6 7 7 8 8 8 8 8 8
2 1 1 1 0 -0 -0 -0 -0 -0 0 1 2 2 2 2 2 2 2 2 3 3 4 4 4 5 5 5 6 7 7 7 7 7 7 7 8 8 8 8 8 9 9
2 2 1 1 0 -0 -0 -0 -0 -0 0 1 1 2 2 2 1 1 1 2 2 2 3 3 4 5 6 7 8 9 9 9 9 8 8 8 8 8 8 8 9 9 10